Location: Newark
(35.2672°N, 80.7344°W)
Time: 10:27:22
(UTC+00:00)

Altair - All Passes

Search period start: 24 January 2020 00:00
Search period end: 03 February 2020 00:00
Orbit: 1502 x 1682 km, 47.2° (Epoch: 23 January)

Date Brightness Start Highest point End Pass type
(mag) Time Alt. Az. Time Alt. Az. Time Alt. Az.
24 Jan - 12:03:12 10° SSW 12:11:55 36° SE 12:20:48 10° ENE visible
24 Jan - 14:06:08 10° WSW 14:16:12 79° NNW 14:26:26 10° NE daylight
24 Jan - 16:12:45 10° W 16:22:20 44° N 16:31:54 10° ENE daylight
24 Jan - 18:19:30 10° WNW 18:29:15 48° NNE 18:38:47 10° E daylight
24 Jan - 20:24:48 10° NW 20:34:57 85° SW 20:44:44 10° SE daylight
24 Jan - 22:31:10 10° WNW 22:38:45 25° SW 22:46:08 10° S daylight
25 Jan - 11:38:24 10° S 11:46:49 33° SE 11:55:24 10° ENE visible
25 Jan - 13:40:55 10° WSW 13:50:58 84° NW 14:01:13 10° NE daylight
25 Jan - 15:47:22 10° W 15:56:59 45° NNW 16:06:37 10° ENE daylight
25 Jan - 17:54:12 10° WNW 18:03:55 47° NNE 18:13:26 10° E daylight
25 Jan - 19:59:34 10° NW 20:09:45 90° NE 20:19:35 10° SE daylight
25 Jan - 22:05:41 10° WNW 22:13:41 28° SW 22:21:29 10° S daylight
26 Jan - 11:13:39 10° S 11:21:43 30° SE 11:29:58 10° ENE visible
26 Jan - 13:15:43 10° SW 13:25:44 89° NW 13:35:59 10° NE daylight
26 Jan - 15:22:00 10° W 15:31:38 46° NNW 15:41:19 10° ENE daylight
26 Jan - 17:28:53 10° WNW 17:38:34 45° NNE 17:48:04 10° E daylight
26 Jan - 19:34:19 10° NW 19:44:32 85° NE 19:54:25 10° SE daylight
26 Jan - 21:40:13 10° WNW 21:48:36 32° SW 21:56:45 10° S daylight
27 Jan - 10:48:57 10° S 10:56:38 27° SE 11:04:29 10° ENE visible
27 Jan - 12:50:33 10° SW 13:00:31 86° SE 13:10:45 10° NE daylight
27 Jan - 14:56:37 10° W 15:06:17 48° NNW 15:16:02 10° ENE daylight
27 Jan - 17:03:35 10° WNW 17:13:13 44° N 17:22:43 10° E daylight
27 Jan - 19:09:05 10° NW 19:19:18 80° NNE 19:29:13 10° ESE daylight
27 Jan - 21:14:48 10° WNW 21:23:31 35° SW 21:31:58 10° S daylight
28 Jan - 10:24:20 10° S 10:31:34 24° SE 10:38:57 10° ENE visible
28 Jan - 12:25:24 10° SW 12:35:19 81° SE 12:45:31 10° ENE daylight
28 Jan - 14:31:15 10° W 14:40:57 49° NNW 14:50:45 10° ENE daylight
28 Jan - 16:38:16 10° WNW 16:47:52 43° N 16:57:21 10° ENE daylight
28 Jan - 18:43:51 10° NW 18:54:04 76° NNE 19:04:00 10° ESE daylight
28 Jan - 20:49:25 10° WNW 20:58:25 39° SW 21:07:10 10° SSE daylight
29 Jan - 09:59:47 10° SSE 10:06:30 21° SE 10:13:21 10° E visible
29 Jan - 12:00:17 10° SW 12:10:08 76° SE 12:20:16 10° ENE visible
29 Jan - 14:05:54 10° W 14:15:37 51° NNW 14:25:29 10° NE daylight
29 Jan - 16:12:56 10° WNW 16:22:29 43° N 16:31:58 10° ENE daylight
29 Jan - 18:18:38 10° NW 18:28:49 72° NNE 18:38:45 10° ESE daylight
29 Jan - 20:24:04 10° WNW 20:33:18 42° SW 20:42:18 10° SSE daylight
30 Jan - 09:35:21 10° SSE 09:41:27 19° ESE 09:47:38 10° E visible
30 Jan - 11:35:11 10° SW 11:44:57 71° SE 11:55:01 10° ENE visible
30 Jan - 13:40:33 10° W 13:50:17 53° NNW 14:00:13 10° NE daylight
30 Jan - 15:47:36 10° WNW 15:57:07 42° N 16:06:36 10° ENE daylight
30 Jan - 17:53:23 10° NW 18:03:33 68° NNE 18:13:29 10° ESE daylight
30 Jan - 19:58:44 10° WNW 20:08:11 47° SW 20:17:23 10° SSE daylight
31 Jan - 09:11:04 10° SSE 09:16:24 16° ESE 09:21:49 10° E visible
31 Jan - 11:10:08 10° SW 11:19:47 65° SE 11:29:45 10° ENE visible
31 Jan - 13:15:13 10° W 13:24:59 55° NNW 13:34:58 10° NE daylight
31 Jan - 15:22:17 10° WNW 15:31:44 42° N 15:41:14 10° ENE daylight
31 Jan - 17:28:08 10° NW 17:38:17 64° NNE 17:48:13 10° ESE daylight
31 Jan - 19:33:26 10° WNW 19:43:04 51° SW 19:52:26 10° SSE daylight
01 Feb - 08:46:59 10° SSE 08:51:22 14° ESE 08:55:48 10° E visible
01 Feb - 10:45:06 10° SSW 10:54:38 60° SE 11:04:29 10° ENE visible
01 Feb - 12:49:54 10° WSW 12:59:41 58° NNW 13:09:42 10° NE daylight
01 Feb - 14:56:56 10° WNW 15:06:22 42° N 15:15:52 10° ENE daylight
01 Feb - 17:02:54 10° NW 17:13:00 61° NNE 17:22:55 10° ESE daylight
01 Feb - 19:08:07 10° WNW 19:17:55 56° SW 19:27:27 10° SSE daylight
01 Feb - 21:17:55 10° W 21:21:07 12° WSW 21:24:18 10° SW daylight
02 Feb - 08:23:19 10° SE 08:26:20 12° ESE 08:29:21 10° ESE visible
02 Feb - 10:20:05 10° SSW 10:29:29 56° SE 10:39:12 10° ENE visible
02 Feb - 12:24:36 10° WSW 12:34:23 61° NNW 12:44:27 10° NE daylight
02 Feb - 14:31:35 10° WNW 14:41:00 42° N 14:50:30 10° ENE daylight
02 Feb - 16:37:39 10° NW 16:47:42 58° NNE 16:57:36 10° ESE daylight
02 Feb - 18:42:51 10° WNW 18:52:46 60° SW 19:02:27 10° SSE daylight
02 Feb - 20:51:31 10° W 20:56:04 14° WSW 21:00:35 10° SSW daylight
